Theta_e
309 309 309 309 310 310 311 312 312 311 311 312 312 311 310 308 307 307 310 312 314 310 311 316 311 315 317 317 317 316 317 319 321 327 328 327 329 328 330 330 326 326 331 339 339
309 308 308 309 310 310 311 312 312 311 312 312 311 310 308 307 308 311 319 313 312 310 312 316 315 315 317 317 317 317 318 320 329 329 326 326 327 327 328 332 333 329 326 339 340
309 308 308 309 310 311 312 312 312 311 312 312 311 309 307 307 317 322 318 315 312 310 312 317 317 317 317 317 318 318 318 320 326 326 326 327 327 325 325 328 331 331 337 339 337
309 308 308 309 310 311 313 312 312 312 312 311 310 308 307 309 324 321 317 311 311 311 316 317 316 317 317 318 318 318 318 320 325 326 327 328 327 325 322 323 325 332 336 337 337
308 307 308 309 311 313 313 313 312 312 311 310 309 308 308 321 322 321 316 313 311 313 318 316 316 316 318 319 318 318 321 321 325 324 326 325 326 326 324 325 327 332 334 335 336
308 307 308 309 311 313 313 313 312 311 311 309 308 308 312 322 319 320 316 314 313 315 317 315 317 317 318 318 318 319 321 321 323 325 325 326 324 327 326 326 332 333 332 332 331
308 307 308 310 312 313 314 312 311 311 309 308 308 309 316 318 319 321 317 315 317 317 316 316 317 318 319 319 319 320 320 320 322 323 326 324 327 325 327 328 330 328 329 328 328
308 308 308 311 313 314 314 312 311 310 308 308 309 311 318 321 319 320 320 319 317 317 316 319 319 318 319 320 320 319 320 320 321 322 323 325 322 323 328 327 327 327 327 327 326
309 308 308 312 313 314 313 311 310 308 308 309 313 319 322 320 318 318 319 320 320 318 318 318 318 319 320 320 320 319 318 320 322 322 323 322 321 323 327 327 328 328 328 328 327
311 308 308 312 314 314 313 310 309 308 309 310 312 318 318 320 319 317 318 319 320 319 319 319 319 321 321 320 319 318 319 320 320 320 322 320 321 323 324 327 328 328 328 329 329
312 308 309 313 314 314 312 309 316 317 316 317 320 318 318 319 319 318 318 319 320 320 322 320 321 321 322 321 320 320 319 320 320 321 320 319 321 322 323 325 327 328 329 329 329
313 308 309 313 314 314 311 317 321 324 325 321 314 319 319 319 319 318 318 319 321 322 321 319 320 321 321 320 321 319 320 319 319 318 319 318 320 320 323 324 326 327 328 329 329
313 308 309 313 314 314 311 309 320 320 324 322 316 317 319 318 318 318 318 319 320 321 321 322 322 321 320 321 319 319 320 321 320 319 317 322 320 321 322 324 324 325 326 327 329
314 309 310 314 314 313 311 309 317 318 324 322 319 319 319 319 318 318 318 319 321 321 320 321 322 321 320 318 319 321 322 321 321 322 321 322 323 323 324 323 324 325 326 326 328
314 310 310 313 321 317 324 317 322 324 328 322 320 318 319 318 318 319 319 319 320 321 321 322 321 320 319 322 322 322 322 322 322 320 324 323 324 325 325 325 325 326 327 327 328
314 310 310 314 314 317 324 328 324 331 326 320 319 320 319 318 318 318 319 318 319 319 322 320 321 322 323 322 322 323 323 323 321 322 328 324 324 326 325 324 326 325 326 327 328
315 311 310 314 317 315 320 328 328 324 320 320 319 319 319 319 319 318 319 319 319 319 322 320 320 321 322 320 322 321 321 323 328 329 328 323 323 327 324 325 327 327 326 327 329
315 312 310 313 319 322 325 329 325 320 321 318 318 319 319 319 318 318 320 318 319 319 320 323 325 321 321 320 323 324 320 326 328 328 326 324 324 322 326 325 323 326 327 328 328
315 312 310 313 316 322 325 329 325 321 320 319 318 318 318 319 319 318 318 318 319 320 324 324 324 323 322 322 321 319 322 322 323 325 327 321 320 323 324 323 322 327 327 327 326
314 311 310 313 314 321 326 326 323 322 320 319 318 318 319 320 318 319 319 319 319 321 321 324 324 323 322 321 321 321 321 324 323 323 323 320 320 324 324 323 323 326 327 326 325
314 314 314 314 314 321 326 326 324 321 320 320 318 318 319 320 319 319 320 322 322 322 322 321 323 322 322 322 319 322 321 321 320 327 331 328 320 320 320 322 323 324 327 325 324
313 316 317 316 317 317 326 323 321 321 321 321 320 319 319 321 320 319 319 321 322 321 322 321 320 328 322 322 322 322 324 321 332 324 329 330 322 320 320 319 321 322 324 325 324
314 317 319 316 318 323 323 322 322 322 323 323 321 321 320 321 321 320 320 324 324 322 322 322 322 325 323 324 323 322 320 321 322 326 327 331 325 320 319 318 318 320 321 324 324
315 320 324 321 315 321 325 322 322 321 321 321 322 321 320 320 321 321 321 323 322 323 319 322 322 321 326 323 323 324 321 320 321 329 325 323 319 319 320 320 319 319 319 321 322
316 320 322 324 323 323 325 322 322 321 321 322 321 320 322 322 322 323 322 324 322 321 320 322 323 321 321 321 322 322 321 321 320 321 322 322 319 319 318 319 318 318 319 318 319
317 320 320 321 320 324 324 325 322 321 323 323 323 321 323 323 323 323 323 326 324 323 323 323 326 325 325 322 322 321 321 321 320 319 319 319 319 319 319 318 318 317 317 318 317
315 320 321 322 323 326 327 325 323 322 322 322 322 323 323 325 325 325 325 325 324 326 326 327 330 326 325 320 321 321 322 320 321 319 319 320 320 319 319 318 318 317 317 317 317
Wind_Speed
18 18 18 18 19 20 22 24 25 24 24 22 19 18 17 16 17 19 22 9 6 11 8 5 13 13 11 16 18 18 12 14 17 12 5 10 1 10 15 9 2 5 3 15 16
18 18 18 19 19 20 22 23 24 24 22 21 17 15 14 17 20 21 9 8 11 8 11 9 13 13 16 15 20 14 11 17 15 13 8 3 17 7 3 20 11 12 34 16 19
18 17 17 18 18 19 21 22 24 22 20 18 14 12 11 15 14 2 9 8 8 11 11 9 11 13 15 19 18 18 15 15 5 12 20 27 7 19 7 3 19 7 22 19 18
18 17 17 17 18 19 21 21 23 21 18 15 12 10 10 9 3 9 10 4 7 12 12 14 14 13 16 16 15 15 20 16 11 11 10 11 23 9 2 9 6 7 15 18 17
18 16 17 17 17 18 19 21 21 18 15 13 10 9 8 6 11 7 5 1 9 15 10 11 12 12 15 14 11 14 15 2 13 13 16 26 17 8 7 11 6 13 14 17 14
18 17 16 17 17 17 19 20 19 15 12 10 8 8 7 10 2 5 4 3 7 13 8 10 9 12 15 12 11 10 15 5 7 25 9 22 7 17 17 15 15 16 17 16 16
18 17 16 17 17 17 18 18 16 13 10 7 7 8 11 14 2 2 2 5 8 10 7 8 9 7 8 4 6 4 5 3 2 6 10 10 20 6 37 28 26 23 19 17 17
18 17 16 16 16 17 17 16 14 9 6 5 6 7 10 4 8 8 7 7 10 11 12 6 7 11 13 13 3 7 11 4 4 8 10 14 11 10 22 22 22 22 18 15 15
19 17 16 16 16 16 16 13 10 7 4 3 3 5 10 4 9 8 11 9 8 12 11 7 6 12 13 8 9 8 6 9 13 13 4 7 15 14 17 12 24 23 20 21 16
19 18 16 15 15 15 13 10 8 6 4 5 6 6 13 9 7 4 6 7 6 8 7 8 6 7 9 8 6 5 5 11 13 11 15 10 14 13 14 27 15 20 17 15 16
19 18 16 15 14 13 9 6 7 3 11 11 4 11 9 4 6 7 8 8 5 11 9 11 6 6 7 10 2 8 14 19 12 11 9 10 15 15 18 14 16 21 27 24 18
19 18 16 15 13 12 11 7 6 6 11 18 21 17 16 7 8 12 12 11 11 6 2 4 6 8 15 10 15 13 9 8 9 6 7 10 11 15 15 18 20 19 27 23 24
20 18 17 14 13 15 16 20 3 16 7 13 22 20 16 14 17 15 12 11 3 6 7 4 13 21 15 17 15 11 5 8 9 7 9 6 11 16 15 19 19 20 19 20 24
21 19 17 12 10 10 15 8 8 5 5 10 17 16 17 11 18 18 18 11 9 6 4 3 24 15 11 11 12 8 12 5 7 11 7 5 8 10 7 14 15 18 21 20 23
22 20 18 13 7 8 6 3 4 6 4 13 19 18 17 18 17 12 8 9 6 10 7 6 10 11 8 5 9 4 15 10 16 9 5 9 9 10 11 11 15 18 19 19 19
25 22 19 20 20 15 3 5 7 5 6 8 15 11 15 16 20 16 17 12 10 6 12 6 15 19 13 12 10 11 10 14 10 10 2 15 10 11 10 19 11 18 16 16 18
26 24 24 19 9 8 9 5 6 7 8 10 14 15 16 15 15 13 17 16 9 9 10 5 16 6 11 9 5 8 9 5 8 5 8 8 9 8 20 10 12 19 23 20 19
28 24 26 25 15 4 9 6 12 13 20 5 14 16 18 15 16 15 13 17 18 17 8 6 13 12 8 11 7 19 10 3 7 4 9 3 5 2 21 21 42 37 25 24 22
29 25 29 30 22 9 11 11 11 13 20 10 14 13 17 16 10 14 18 17 19 18 6 5 4 17 7 5 4 6 7 7 2 14 6 3 13 10 9 9 1 25 24 24 24
31 19 32 30 27 12 7 18 18 21 10 13 15 16 16 15 10 12 14 16 16 8 28 10 7 22 8 5 5 6 8 3 2 2 4 8 10 5 5 4 2 10 19 22 23
24 11 19 29 28 14 12 18 21 29 9 8 16 16 17 13 14 13 10 11 5 7 5 7 16 6 6 8 9 6 7 7 6 3 1 3 3 6 7 6 4 6 20 22 25
28 8 22 34 17 18 14 22 29 25 12 9 12 16 15 14 15 13 14 8 12 9 5 8 4 4 9 2 4 8 10 12 3 5 2 1 6 3 5 4 2 6 12 23 26
29 19 32 36 13 12 19 25 28 24 15 15 11 14 11 12 10 12 8 5 5 3 1 3 3 4 8 8 7 8 11 9 4 3 5 3 4 4 4 1 2 5 8 14 22
26 10 15 29 27 20 22 21 25 30 16 16 15 13 8 10 8 9 7 3 3 2 4 4 5 8 6 10 5 12 12 11 11 3 3 8 13 8 10 9 9 9 7 11 17
21 14 15 13 19 20 20 20 24 18 19 20 16 18 11 9 11 8 8 7 4 2 2 2 7 11 13 15 3 12 9 10 13 10 10 10 14 12 8 5 1 2 11 9 13
18 17 26 17 29 21 20 26 26 21 17 13 12 12 14 10 11 10 11 8 7 7 7 4 1 4 3 10 14 12 15 13 15 13 13 15 14 12 9 11 11 7 6 5 11
33 24 23 22 21 19 20 23 26 19 21 19 18 14 16 7 11 12 16 10 4 9 9 6 3 2 2 5 7 6 9 16 15 15 11 11 10 9 6 2 4 6 8 4 10
Wind_Direction
283 287 292 298 303 309 311 314 316 320 319 317 318 318 317 312 307 295 287 270 270 237 224 221 218 224 233 241 241 238 262 265 271 309 7 333 112 40 90 117 98 120 60 136 124
280 284 293 297 302 307 310 312 316 318 318 315 321 317 319 317 309 300 328 289 229 223 208 218 216 218 230 237 239 240 240 256 74 108 102 356 290 139 242 143 198 153 146 131 124
279 281 289 295 302 306 307 312 314 316 316 313 318 317 323 322 325 321 330 306 227 215 201 215 215 218 234 236 229 231 251 272 102 130 160 194 196 58 9 10 91 306 119 121 132
279 279 285 292 298 304 308 312 314 315 313 311 318 319 321 322 285 352 339 321 184 172 187 230 229 228 250 247 234 245 237 273 54 162 174 41 82 38 333 239 155 145 120 135 130
280 278 282 291 298 303 307 310 313 311 311 314 321 316 323 283 271 313 335 107 176 176 220 219 225 224 241 248 231 233 272 238 116 80 229 98 117 154 232 110 137 131 142 129 129
280 278 283 289 295 301 306 311 310 308 309 317 319 308 309 266 22 329 7 194 184 186 218 219 224 238 282 259 209 242 268 156 158 173 181 78 225 157 211 182 130 140 149 141 145
281 277 282 287 296 300 306 310 307 306 309 322 308 302 280 241 128 310 266 180 186 195 214 239 274 280 301 248 230 317 294 246 206 142 104 150 203 180 164 170 152 151 146 158 154
280 278 280 286 294 298 306 308 303 301 310 317 299 308 260 250 260 248 221 213 223 218 247 303 283 283 299 334 258 241 235 201 184 193 188 168 109 136 135 146 160 149 150 158 150
277 275 276 284 292 297 305 304 298 293 298 287 321 334 265 279 247 238 217 230 231 223 232 261 253 251 263 250 229 221 216 186 224 215 191 240 132 144 157 155 148 151 175 159 156
272 273 272 280 288 297 302 298 286 278 274 263 246 282 254 217 203 194 192 211 185 189 211 235 223 228 229 224 205 196 234 206 217 191 228 213 133 157 176 146 170 150 153 147 169
267 267 268 276 282 291 286 283 308 290 215 215 212 225 163 196 219 214 188 181 192 188 215 195 196 209 323 258 17 241 245 221 192 173 212 200 153 169 178 194 162 172 164 162 177
260 262 261 267 274 276 253 224 350 350 289 245 242 256 266 268 252 231 173 209 181 227 194 186 275 149 217 245 244 253 234 154 114 167 232 225 175 171 187 191 179 187 173 179 174
253 254 256 259 270 269 254 234 243 341 264 248 220 233 238 223 233 208 191 209 296 214 191 88 279 289 265 209 241 257 288 219 160 186 214 11 245 173 186 198 203 195 191 185 173
244 247 245 254 281 274 262 253 241 286 276 210 198 227 228 212 227 232 197 220 201 158 209 239 228 253 228 207 231 270 338 216 274 215 202 210 222 187 1 212 200 200 202 194 178
236 241 237 223 201 210 21 166 192 186 263 180 192 200 205 209 215 201 209 251 221 89 232 189 301 242 248 344 319 119 273 274 245 258 75 357 303 186 191 246 218 215 202 199 176
230 232 229 221 218 193 166 155 201 233 237 158 157 178 216 205 231 213 190 239 216 235 165 245 258 274 107 231 254 171 231 250 276 269 135 227 204 153 196 221 264 197 207 200 178
223 227 225 224 217 231 225 220 211 221 242 180 182 196 209 202 220 228 188 202 213 213 178 242 241 191 171 209 211 233 246 238 7 335 270 292 160 223 210 186 127 222 190 180 171
218 223 225 221 188 204 201 221 226 203 236 208 187 197 207 196 210 205 208 210 211 245 233 165 263 180 202 237 125 272 255 236 168 293 309 35 265 85 158 195 176 202 170 168 171
212 217 227 218 191 194 215 211 213 228 208 215 187 198 211 207 196 193 217 209 222 219 135 1 193 279 343 263 281 289 244 300 316 198 285 279 265 129 83 102 210 154 163 169 177
202 212 227 215 197 190 228 224 220 238 255 187 208 199 206 201 193 194 203 220 221 241 131 167 313 248 195 244 251 265 337 305 277 295 272 299 312 109 152 108 132 164 163 174 181
185 204 232 209 188 204 219 217 235 238 237 209 211 204 221 179 197 197 220 145 161 219 234 241 219 154 139 216 249 181 242 242 302 250 353 333 318 36 48 61 141 228 172 180 185
183 207 199 186 177 208 220 214 228 241 202 249 257 223 223 198 193 222 220 243 169 225 210 251 308 266 236 293 315 319 284 211 156 274 151 352 276 48 97 76 148 236 209 186 190
186 185 178 182 194 203 212 224 230 238 190 219 237 250 205 242 193 215 219 68 74 168 275 274 235 260 285 198 212 246 255 264 263 72 207 176 262 159 155 247 240 240 233 203 193
179 181 171 203 210 198 202 212 221 236 236 206 227 232 203 221 216 208 200 109 114 102 57 334 246 252 239 254 334 208 239 243 233 149 233 256 269 243 202 211 197 192 264 236 209
198 203 179 190 201 198 201 213 212 210 219 217 212 215 198 210 202 213 197 118 128 114 182 237 241 266 274 268 268 293 284 236 239 236 234 253 260 270 337 4 168 105 189 240 265
205 204 178 187 186 201 210 218 217 196 190 212 230 207 201 196 223 196 213 155 180 167 199 193 231 325 306 294 288 271 278 274 275 272 253 268 269 278 38 24 20 353 297 245 274
209 221 182 174 185 200 213 211 220 194 200 207 211 197 218 121 90 63 60 171 206 160 199 157 135 138 238 25 342 318 243 252 264 266 262 262 271 291 305 143 10 317 305 246 278